Date String (YYYY-MM-DD hh:mm:ss) UTC,Instrument flags,absolute air pressure of the measurement (hPa),sample flow rate (lpm),inlet stack bypass flow (lpm),air temperature of the measurement (°C),ambient temperature measured by the external sensor (°C),aerosol sample conditioner tube jacket temperature (°C),OPC LED temperature (°C),internal box temperature (°C),relative humidity of the measurement (%),span deviation,mass concentration of particles derived from Lorenz-Mie calculation of OPC scattering (μg/m³),mass concentration of particles derived from Lorenz-Mie calculation of OPC scattering (μg/m³),mass concentration of particles derived from Lorenz-Mie calculation of OPC scattering (μg/m³)
DateTimeUTC,F1_M11,P_M11,Q1_M11,Q2_M11,T1_M11,T2_M11,T3_M11,T4_M11,T5_M11,U1_M11,ZSPAN_M11,X2_M11,X0_M11,X1_M11
2023-08-30 05:00:00,SystemResetWarning,0835.7,5.00,000.00,028.0,025.9,000.0,036.5,029.6,28.6,0000.2,0005.39,0010.34,0004.85
2023-08-30 05:01:00,SystemResetWarning,0835.7,5.00,000.00,028.0,026.2,000.0,036.6,029.7,28.8,0000.0,0005.36,0010.27,0004.84
2023-08-30 05:02:00,SystemResetWarning,0835.7,5.00,000.00,028.1,026.4,000.0,036.6,029.7,28.6,0000.0,0005.34,0010.18,0004.84
2023-08-30 05:03:00,SystemResetWarning,0835.7,5.00,000.00,028.1,026.6,000.0,036.6,029.8,29.0,0000.2,0005.34,0010.13,0004.84
2023-08-30 05:04:00,SystemResetWarning,0835.7,5.00,000.00,028.1,026.8,000.0,036.6,029.8,28.9,0000.2,0005.35,0010.24,0004.84
2023-08-30 05:05:00,SystemResetWarning,0835.7,5.00,000.00,028.2,026.9,000.0,036.6,029.9,28.9,0000.1,0005.36,0010.21,0004.85
2023-08-30 05:06:00,SystemResetWarning,0835.7,4.99,000.00,028.2,027.0,000.0,036.7,029.9,28.6,0000.0,0005.38,0010.08,0004.85
2023-08-30 05:07:00,SystemResetWarning,0835.7,5.00,000.00,028.2,027.1,000.0,036.7,030.0,28.5,-000.2,0005.35,0009.71,0004.86
2023-08-30 05:08:00,SystemResetWarning,0835.7,5.00,000.00,028.3,027.2,000.0,036.7,030.0,28.2,-000.3,0005.36,0009.75,0004.86
2023-08-30 05:09:00,SystemResetWarning,0835.7,4.99,000.00,028.3,027.1,000.0,036.7,030.0,28.2,-000.2,0005.34,0009.02,0004.86
2023-08-30 05:10:00,SystemResetWarning,0835.6,5.00,000.00,028.3,025.4,000.0,036.6,029.8,28.0,-000.1,0005.35,0009.02,0004.87
2023-08-30 05:11:00,SystemResetWarning,0835.6,5.00,000.00,028.2,024.3,000.0,036.5,029.5,28.0,-000.1,0005.36,0008.60,0004.87
2023-08-30 05:12:00,SystemResetWarning,0835.6,5.00,000.00,028.1,024.3,000.0,036.5,029.3,28.0,0000.1,0005.37,0009.14,0004.89
2023-08-30 05:13:00,SystemResetWarning,0835.6,5.01,000.00,028.0,024.6,000.0,036.5,029.3,28.2,-000.0,0005.39,0009.73,0004.90
2023-08-30 05:14:00,SystemResetWarning,0835.6,5.00,000.00,028.0,025.0,000.0,036.5,029.4,28.6,-000.3,0005.40,0009.85,0004.92
2023-08-30 05:15:00,SystemResetWarning,0835.6,5.00,000.00,028.0,025.4,000.0,036.6,029.5,28.9,-000.0,0005.39,0010.01,0004.93
2023-08-30 05:16:00,SystemResetWarning,0835.6,5.00,000.00,028.0,025.7,000.0,036.6,029.6,28.7,0000.1,0005.41,0010.29,0004.94
2023-08-30 05:17:00,SystemResetWarning,0835.6,5.00,000.00,028.0,026.0,000.0,036.6,029.7,28.5,-000.2,0005.43,0010.58,0004.95
2023-08-30 05:18:00,SystemResetWarning,0835.6,5.00,000.00,028.0,026.3,000.0,036.6,029.7,28.5,0000.1,0005.43,0010.54,0004.97
2023-08-30 05:19:00,SystemResetWarning,0835.6,5.00,000.00,028.1,026.5,000.0,036.6,029.7,28.3,0000.6,0005.44,0010.54,0004.98
2023-08-30 05:20:00,SystemResetWarning,0835.6,5.00,000.00,028.1,026.7,000.0,036.6,029.8,28.2,0000.4,0005.47,0010.64,0004.99
2023-08-30 05:21:00,SystemResetWarning,0835.6,5.00,000.00,028.1,026.8,000.0,036.6,029.9,28.1,0000.8,0005.51,0010.71,0005.01
2023-08-30 05:22:00,SystemResetWarning,0835.6,4.99,000.00,028.2,026.9,000.0,036.7,029.9,28.2,0001.2,0005.55,0010.75,0005.03
2023-08-30 05:23:00,SystemResetWarning,0835.7,5.00,000.00,028.2,027.1,000.0,036.7,029.9,27.9,0001.3,0005.56,0010.19,0005.03
2023-08-30 05:24:00,SystemResetWarning,0835.6,5.00,000.00,028.3,027.1,000.0,036.7,030.0,28.1,0001.0,0005.56,0009.78,0005.05
2023-08-30 05:25:00,SystemResetWarning,0835.6,5.00,000.00,028.3,027.2,000.0,036.7,030.0,28.0,0001.1,0005.56,0010.06,0005.05
2023-08-30 05:26:00,SystemResetWarning,0835.6,5.00,000.00,028.3,027.3,000.0,036.8,030.1,27.9,0001.2,0005.58,0009.80,0005.06
2023-08-30 05:27:00,SystemResetWarning,0835.6,4.99,000.00,028.4,026.6,000.0,036.7,030.0,27.7,0001.3,0005.60,0009.71,0005.07
2023-08-30 05:28:00,SystemResetWarning,0835.6,5.01,000.00,028.3,024.9,000.0,036.6,029.7,27.7,0001.4,0005.58,0009.68,0005.07
2023-08-30 05:29:00,SystemResetWarning,0835.6,5.00,000.00,028.2,024.3,000.0,036.5,029.5,27.8,0001.6,0005.58,0010.16,0005.08
2023-08-30 05:30:00,SystemResetWarning,0835.5,5.01,000.00,028.1,024.4,000.0,036.5,029.4,28.3,0001.3,0005.61,0010.24,0005.09
2023-08-30 05:31:00,SystemResetWarning,0835.5,5.00,000.00,028.0,024.8,000.0,036.6,029.4,28.5,0001.3,0005.61,0010.50,0005.10
2023-08-30 05:32:00,SystemResetWarning,0835.6,5.00,000.00,028.0,025.2,000.0,036.6,029.5,28.7,0001.1,0005.63,0010.72,0005.12
2023-08-30 05:33:00,SystemResetWarning,0835.6,5.00,000.00,028.0,025.5,000.0,036.6,029.6,28.7,0000.5,0005.61,0010.75,0005.11
2023-08-30 05:34:00,SystemResetWarning,0835.6,5.00,000.00,028.0,025.9,000.0,036.6,029.6,28.7,0000.1,0005.60,0011.19,0005.12
2023-08-30 05:35:00,SystemResetWarning,0835.6,5.00,000.00,028.1,026.1,000.0,036.6,029.7,28.5,0000.6,0005.61,0012.00,0005.13
2023-08-30 05:36:00,SystemResetWarning,0835.6,5.00,000.00,028.1,026.4,000.0,036.6,029.7,28.2,0000.2,0005.63,0011.62,0005.14
2023-08-30 05:37:00,SystemResetWarning,0835.6,5.00,000.00,028.1,026.6,000.0,036.7,029.8,28.4,-000.3,0005.64,0011.63,0005.15
2023-08-30 05:38:00,SystemResetWarning,0835.6,5.00,000.00,028.1,026.7,000.0,036.7,029.8,28.2,-000.1,0005.62,0011.54,0005.14
2023-08-30 05:39:00,SystemResetWarning,0835.6,4.99,000.00,028.2,026.9,000.0,036.7,029.9,28.0,0000.4,0005.61,0011.09,0005.14
2023-08-30 05:40:00,SystemResetWarning,0835.6,4.99,000.00,028.2,027.0,000.0,036.7,029.9,27.8,0000.2,0005.65,0010.71,0005.13
2023-08-30 05:41:00,SystemResetWarning,0835.5,5.00,000.00,028.2,027.1,000.0,036.7,030.0,27.4,-000.1,0005.65,0010.67,0005.12
2023-08-30 05:42:00,SystemResetWarning,0835.5,5.00,000.00,028.3,027.2,000.0,036.7,030.0,27.5,-000.1,0005.64,0010.43,0005.11
2023-08-30 05:43:00,SystemResetWarning,0835.6,5.00,000.00,028.3,027.2,000.0,036.8,030.0,27.5,-000.0,0005.56,0010.21,0005.08
2023-08-30 05:44:00,SystemResetWarning,0835.7,5.00,000.00,028.4,027.3,000.0,036.8,030.1,27.1,0000.1,0005.54,0010.40,0005.06
2023-08-30 05:45:00,SystemResetWarning,0835.6,5.00,000.00,028.4,027.3,000.0,036.8,030.1,26.8,0000.7,0005.57,0010.35,0005.05
2023-08-30 05:46:00,SystemResetWarning,0835.5,4.99,000.00,028.4,026.0,000.0,036.7,029.9,26.8,-000.3,0005.59,0009.59,0005.04
2023-08-30 05:47:00,SystemResetWarning,0835.5,5.00,000.00,028.3,024.5,000.0,036.6,029.6,26.9,-001.1,0005.60,0009.70,0005.02
2023-08-30 05:48:00,SystemResetWarning,0835.5,5.01,000.00,028.2,024.3,000.0,036.6,029.5,27.0,-000.5,0005.61,0009.82,0005.02
2023-08-30 05:49:00,SystemResetWarning,0835.5,5.01,000.00,028.1,024.5,000.0,036.6,029.3,27.5,-000.5,0005.61,0009.84,0005.01
2023-08-30 05:50:00,SystemResetWarning,0835.5,4.99,000.00,028.1,024.9,000.0,036.6,029.4,27.6,-000.9,0005.60,0009.85,0005.00
2023-08-30 05:51:00,SystemResetWarning,0835.5,5.00,000.00,028.0,025.3,000.0,036.7,029.5,27.6,0000.2,0005.56,0009.76,0005.01
2023-08-30 05:52:00,SystemResetWarning,0835.5,5.01,000.00,028.1,025.7,000.0,036.7,029.6,27.8,0000.8,0005.54,0009.68,0005.00
2023-08-30 05:53:00,SystemResetWarning,0835.5,5.00,000.00,028.1,026.0,000.0,036.7,029.7,27.5,0000.4,0005.53,0009.58,0005.00
2023-08-30 05:54:00,SystemResetWarning,0835.5,5.00,000.00,028.1,026.2,000.0,036.7,029.7,27.7,0000.3,0005.53,0009.45,0005.01
2023-08-30 05:55:00,SystemResetWarning,0835.5,5.00,000.00,028.1,026.4,000.0,036.7,029.8,27.7,0000.7,0005.51,0009.11,0005.01
2023-08-30 05:56:00,SystemResetWarning,0835.5,5.01,000.00,028.1,026.6,000.0,036.7,029.8,27.8,0000.5,0005.48,0008.68,0005.01
2023-08-30 05:57:00,SystemResetWarning,0835.5,5.00,000.00,028.2,026.8,000.0,036.7,029.8,27.6,0001.0,0005.47,0008.83,0005.00
2023-08-30 05:58:00,SystemResetWarning,0835.5,5.00,000.00,028.2,026.9,000.0,036.7,029.9,27.5,0001.9,0005.46,0008.89,0005.01
2023-08-30 05:59:00,SystemResetWarning,0835.5,5.00,000.00,028.2,027.0,000.0,036.7,029.9,27.5,0001.5,0005.43,0008.72,0005.00
